User: anonymous   Login
Location: Althorst
(53.6379°N, 10.7715°E)
Time: 00:22:34
(UTC+00:00)
Language:

H-2A R/B - Orbit

View from above orbital plane
View from above orbital plane
View from above satellite
View from above satellite

Ground track
Ground track

The orbit data is extracted from the following two-line orbital elements,

1 27601U 02056E   20047.53635699 +.00000037 +00000-0 +28619-4 0  9998
2 27601 098.2440 089.4757 0070931 280.8444 206.0477 14.31933599897248
Epoch (UTC): 16 February 2020 12:52:21
Eccentricity: 0.0070931
inclination: 98.2440°
perigee height: 734 km
apogee height: 836 km
right ascension of ascending node: 89.4757°
argument of perigee: 280.8444°
revolutions per day: 14.31933599
mean anomaly at epoch: 206.0477°
orbit number at epoch: 89724

The dashed part of the orbit path shows where the satellite is in the earth's shadow,  

DLR